Bellingham, WA
on Friday, November 16, 2012

Friday
Previous Day Next Day
Daily Summary
 ActualAverageRecord
Temperature
Mean Temperature °F 43°F  
Max Temperature 55°F 50°F 63°F (1976)
Min Temperature 37°F 37°F 18°F (1959)
Degree Days
Heating Degree Days 20 22  
Month to date heating degree days 323  
Cooling Degree Days 0 0  
Month to date cooling degree days 0  
Year to date cooling degree days 42  
Moisture
Dew Point 38°F   
Average Humidity 91    
Maximum Humidity 100    
Minimum Humidity 67    
Precipitation
Precipitation 0.00 in 0.21 in 1.22 in (1973)
Month to date precipitation 3.15  
Year to date precipitation 28.96  
Wind
Wind Speed 1 mph   
Max Wind Speed 17 mph   
Max Gust Speed 28 mph   
Visibility 4 miles   
Events Fog , Rain   

Key: T is trace of precipitation, MM is missing value
Source: NWS Daily Summary
Time(PST)TemperatureDew PointHumidity Pressure Visibility Wind DirectionWind SpeedGust SpeedPrecipitationEvents Conditions
12:48 AM 37.4°F 37.4°F 100% 29.93 in 0.2 miles Calm Calm - N/A Fog Fog
12:53 AM 37.9°F 37.0°F 97% 29.96 in 0.2 miles Calm Calm - N/A Fog Fog
1:07 AM 37.4°F 37.4°F 100% 29.93 in 0.5 miles Calm Calm - N/A Fog Fog
1:38 AM 37.4°F 35.6°F 93% 29.93 in 0.8 miles Calm Calm - N/A   Overcast
1:53 AM 37.0°F 36.0°F 96% 29.96 in 1.0 miles Calm Calm - N/A   Overcast
2:04 AM 37.4°F 35.6°F 93% 29.93 in 0.8 miles Calm Calm - N/A   Overcast
2:22 AM 37.4°F 37.4°F 100% 29.92 in 0.5 miles Calm Calm - N/A Fog Fog
2:38 AM 37.4°F 37.4°F 100% 29.92 in 0.2 miles Calm Calm - N/A Fog Fog
2:53 AM 37.0°F 37.0°F 100% 29.95 in 0.2 miles Calm Calm - N/A Fog Fog
3:19 AM 37.4°F 35.6°F 93% 29.91 in 0.2 miles Calm Calm - N/A Fog Fog
3:41 AM 37.4°F 35.6°F 93% 29.91 in 0.5 miles Calm Calm - N/A Fog Fog
3:51 AM 37.4°F 37.4°F 100% 29.91 in 0.2 miles Calm Calm - N/A Fog Fog
3:53 AM 37.0°F 36.0°F 96% 29.94 in 0.2 miles Calm Calm - N/A Fog Fog
4:17 AM 37.4°F 37.4°F 100% 29.91 in 0.2 miles Calm Calm - N/A Fog Fog
4:26 AM 37.4°F 37.4°F 100% 29.91 in 0.2 miles Calm Calm - N/A Fog Fog
4:34 AM 37.4°F 37.4°F 100% 29.91 in 0.2 miles Calm Calm - N/A Fog Fog
4:53 AM 37.9°F 37.0°F 97% 29.94 in 0.2 miles Calm Calm - N/A Fog Fog
5:40 AM 37.4°F 37.4°F 100% 29.90 in 0.2 miles Calm Calm - N/A Fog Fog
5:53 AM 39.0°F 37.9°F 96% 29.92 in 0.2 miles Calm Calm - N/A Fog Fog
6:05 AM 39.2°F 37.4°F 93% 29.89 in 0.2 miles Calm Calm - N/A Fog Fog
6:39 AM 37.4°F 37.4°F 100% 29.89 in 0.2 miles Calm Calm - N/A Fog Fog
6:53 AM 37.9°F 37.0°F 97% 29.91 in 0.2 miles Calm Calm - N/A Fog Fog
7:03 AM 37.4°F 37.4°F 100% 29.89 in 0.2 miles Calm Calm - N/A Fog Fog
7:22 AM 37.4°F 37.4°F 100% 29.89 in 0.8 miles Calm Calm - N/A   Overcast
7:45 AM 37.4°F 37.4°F 100% 29.89 in 0.5 miles South 3.5 mph - N/A Fog Fog
7:53 AM 39.0°F 37.9°F 96% 29.92 in 0.5 miles Calm Calm - N/A Fog Fog
7:57 AM 39.2°F 37.4°F 93% 29.89 in 10.0 miles Calm Calm - N/A   Overcast
8:53 AM 39.0°F 37.9°F 96% 29.92 in 10.0 miles Calm Calm - N/A   Overcast
9:17 AM 39.2°F 39.2°F 100% 29.89 in 7.0 miles Calm Calm - N/A   Overcast
9:53 AM 42.1°F 39.9°F 92% 29.92 in 10.0 miles Calm Calm - N/A   Mostly Cloudy
10:53 AM 43.0°F 39.0°F 86% 29.93 in 10.0 miles NW 3.5 mph - N/A   Overcast
11:53 AM 45.0°F 39.9°F 82% 29.91 in 10.0 miles NNW 3.5 mph - N/A   Overcast
12:53 PM 45.0°F 39.0°F 80% 29.88 in 10.0 miles NNW 3.5 mph - N/A   Overcast
1:53 PM 45.0°F 39.9°F 82% 29.87 in 10.0 miles North 3.5 mph - N/A   Overcast
2:53 PM 46.0°F 39.0°F 76% 29.85 in 10.0 miles NNE 5.8 mph - N/A   Overcast
3:53 PM 45.0°F 37.9°F 76% 29.83 in 10.0 miles NNE 5.8 mph - N/A   Clear
4:53 PM 44.1°F 37.9°F 79% 29.82 in 10.0 miles Calm Calm - N/A   Scattered Clouds
5:53 PM 43.0°F 37.9°F 82% 29.80 in 10.0 miles Calm Calm - N/A   Scattered Clouds
6:53 PM 44.1°F 39.0°F 82% 29.78 in 10.0 miles Calm Calm - N/A   Overcast
7:53 PM 46.9°F 41.0°F 80% 29.75 in 10.0 miles North 4.6 mph - N/A   Overcast
8:53 PM 51.1°F 43.0°F 74% 29.73 in 10.0 miles ESE 8.1 mph - 0.00 in Rain Light Rain
9:53 PM 46.9°F 42.1°F 83% 29.72 in 10.0 miles NNE 5.8 mph - 0.00 in   Overcast
10:53 PM 54.0°F 44.1°F 69% 29.70 in 10.0 miles SE 15.0 mph 21.9 mph 0.00 in   Overcast
11:53 PM 55.0°F 44.1°F 67% 29.66 in 10.0 miles SE 17.3 mph 27.6 mph N/A   Overcast
Moon Phase
Nov. 16 Nov. 20 Nov. 28 Dec. 06 Dec. 13
Sunrise:07:21 AM (PST) Moon Rise:10:25 AM (PST)11/16
Sunset:04:28 PM (PST) Moon Set:07:30 PM (PST)11/16

Copyright © 2014 The Weather Underground, Inc.